BZN26 KDCA-KPWM

Flight info

Callsign BZN26
Flight time 1h 7m
Altitude 37000
Route SOOKI6 SWANN BROSS Q419 RBV Q22 LLUND BDR SCOGS3
Aircraft B738/M-SDE2E3FGHIRWXY/LB1

Departure

Time 2026-05-08 00:28
Airport Ronald Reagan Washington National Airport (KDCA)

Arrival

Time 2026-05-08 01:35
Airport Portland International Jetport (KPWM)
Time Latitude Longitude Altitude Speed Heading
2026-05-07 23:56 38.85345 -77.04196 23 ft 0 kts 342°
2026-05-08 00:01 38.85344 -77.04196 23 ft 0 kts 342°
2026-05-08 00:19 38.85337 -77.04193 26 ft 2 kts 342°
2026-05-08 00:19 38.85322 -77.04187 28 ft 2 kts 342°
2026-05-08 00:19 38.85307 -77.04181 27 ft 0 kts 342°
2026-05-08 00:21 38.85310 -77.04180 28 ft 0 kts
2026-05-08 00:22 38.85312 -77.04179 27 ft 2 kts
2026-05-08 00:22 38.85320 -77.04155 27 ft 4 kts 109°
2026-05-08 00:22 38.85317 -77.04120 25 ft 4 kts 91°
2026-05-08 00:22 38.85323 -77.04087 23 ft 4 kts 74°
2026-05-08 00:23 38.85331 -77.04054 24 ft 4 kts 74°
2026-05-08 00:23 38.85339 -77.04023 23 ft 4 kts 64°
2026-05-08 00:23 38.85359 -77.04005 25 ft 4 kts 18°
2026-05-08 00:23 38.85398 -77.04002 24 ft 8 kts 358°
2026-05-08 00:24 38.85451 -77.04007 23 ft 8 kts 354°
2026-05-08 00:24 38.85503 -77.04015 26 ft 7 kts 348°
2026-05-08 00:24 38.85552 -77.04031 25 ft 7 kts 348°
2026-05-08 00:24 38.85601 -77.04037 25 ft 7 kts 355°
2026-05-08 00:25 38.85648 -77.04042 26 ft 7 kts 354°
2026-05-08 00:25 38.85692 -77.04047 25 ft 0 kts 355°
2026-05-08 00:25 38.85714 -77.04049 26 ft 15 kts 356°
2026-05-08 00:25 38.85849 -77.04064 26 ft 14 kts 354°
2026-05-08 00:26 38.85883 -77.04067 25 ft 0 kts 360°
2026-05-08 00:26 38.85894 -77.04065 24 ft 7 kts 11°
2026-05-08 00:26 38.85925 -77.04008 23 ft 8 kts 90°
2026-05-08 00:26 38.85912 -77.03940 25 ft 8 kts 95°
2026-05-08 00:27 38.85889 -77.03879 26 ft 8 kts 135°
2026-05-08 00:27 38.85838 -77.03848 28 ft 16 kts 168°
2026-05-08 00:27 38.85467 -77.03808 26 ft 90 kts 176°
2026-05-08 00:27 38.84623 -77.03722 41 ft 149 kts 175°
2026-05-08 00:28 38.83559 -77.03587 710 ft 150 kts 175°
2026-05-08 00:28 38.82508 -77.03460 1386 ft 162 kts 175°
2026-05-08 00:28 38.81280 -77.03233 1764 ft 188 kts 174°
2026-05-08 00:28 38.80009 -77.02963 2724 ft 182 kts 171°
2026-05-08 00:29 38.78751 -77.02640 3436 ft 193 kts 170°
2026-05-08 00:29 38.77316 -77.02301 3682 ft 223 kts 169°
2026-05-08 00:29 38.75850 -77.01419 3908 ft 246 kts 133°
2026-05-08 00:29 38.75051 -76.99445 4255 ft 263 kts 94°
2026-05-08 00:30 38.75062 -76.97083 4937 ft 269 kts 85°
2026-05-08 00:30 38.75116 -76.94645 5669 ft 278 kts 84°
2026-05-08 00:30 38.75566 -76.92255 6400 ft 276 kts 55°
2026-05-08 00:30 38.76784 -76.90425 7079 ft 275 kts 32°
2026-05-08 00:31 38.78407 -76.89099 7738 ft 280 kts 24°
2026-05-08 00:31 38.80119 -76.87817 8421 ft 289 kts 24°
2026-05-08 00:31 38.81874 -76.86490 9093 ft 298 kts 24°
2026-05-08 00:31 38.83695 -76.85096 9675 ft 310 kts 24°
2026-05-08 00:32 38.85567 -76.83648 9898 ft 319 kts 24°
2026-05-08 00:32 38.87393 -76.82049 9902 ft 318 kts 33°
2026-05-08 00:32 38.89051 -76.80162 9952 ft 321 kts 37°
2026-05-08 00:32 38.90736 -76.78133 10117 ft 342 kts 38°
2026-05-08 00:33 38.92513 -76.76000 10603 ft 355 kts 37°
2026-05-08 00:33 38.94343 -76.73826 11269 ft 362 kts 37°
2026-05-08 00:33 38.96217 -76.71628 11933 ft 368 kts 37°
2026-05-08 00:33 38.98131 -76.69401 12594 ft 375 kts 37°
2026-05-08 00:34 39.00084 -76.67136 13254 ft 381 kts 37°
2026-05-08 00:34 39.02058 -76.64806 13874 ft 390 kts 39°
2026-05-08 00:34 39.03997 -76.62335 14563 ft 393 kts 41°
2026-05-08 00:34 39.05920 -76.59830 15299 ft 394 kts 41°
2026-05-08 00:35 39.07840 -76.57348 15887 ft 398 kts 40°
2026-05-08 00:35 39.09822 -76.54807 16489 ft 404 kts 41°
2026-05-08 00:35 39.11532 -76.51888 17076 ft 416 kts 62°
2026-05-08 00:35 39.12402 -76.48322 17735 ft 419 kts 82°
2026-05-08 00:36 39.12811 -76.44595 18364 ft 422 kts 84°
2026-05-08 00:36 39.13184 -76.40808 18844 ft 429 kts 84°
2026-05-08 00:36 39.13567 -76.36979 19338 ft 434 kts 83°
2026-05-08 00:36 39.13974 -76.33109 19856 ft 438 kts 83°
2026-05-08 00:37 39.14401 -76.29199 20366 ft 443 kts 83°
2026-05-08 00:37 39.14833 -76.25301 20859 ft 447 kts 83°
2026-05-08 00:37 39.15277 -76.21315 21335 ft 452 kts 82°
2026-05-08 00:38 39.16213 -76.13231 22268 ft 461 kts 82°
2026-05-08 00:38 39.16692 -76.09131 22771 ft 464 kts 82°
2026-05-08 00:38 39.17170 -76.04998 23243 ft 469 kts 82°
2026-05-08 00:38 39.17650 -76.00830 23653 ft 473 kts 82°
2026-05-08 00:39 39.18134 -75.96605 24068 ft 477 kts 82°
2026-05-08 00:39 39.18736 -75.92397 24430 ft 481 kts 72°
2026-05-08 00:39 39.20023 -75.88427 24787 ft 480 kts 56°
2026-05-08 00:39 39.21949 -75.84926 25159 ft 475 kts 41°
2026-05-08 00:40 39.24355 -75.82053 25542 ft 469 kts 32°
2026-05-08 00:40 39.26882 -75.79377 25920 ft 471 kts 31°
2026-05-08 00:40 39.29431 -75.76691 26254 ft 475 kts 31°
2026-05-08 00:40 39.31979 -75.73968 26730 ft 475 kts 32°
2026-05-08 00:41 39.34510 -75.71218 27275 ft 474 kts 32°
2026-05-08 00:41 39.37018 -75.68462 27843 ft 473 kts 32°
2026-05-08 00:41 39.39532 -75.65690 28269 ft 475 kts 32°
2026-05-08 00:41 39.42015 -75.62952 28685 ft 476 kts 32°
2026-05-08 00:42 39.44540 -75.60168 29148 ft 476 kts 31°
2026-05-08 00:42 39.47052 -75.57406 29621 ft 475 kts 31°
2026-05-08 00:42 39.49582 -75.54627 30042 ft 475 kts 31°
2026-05-08 00:42 39.52112 -75.51846 30400 ft 476 kts 31°
2026-05-08 00:43 39.54631 -75.49073 30778 ft 475 kts 31°
2026-05-08 00:43 39.57141 -75.46305 31195 ft 474 kts 30°
2026-05-08 00:43 39.59659 -75.43527 31532 ft 475 kts 30°
2026-05-08 00:43 39.62173 -75.40750 31857 ft 474 kts 31°
2026-05-08 00:44 39.64682 -75.37977 32235 ft 473 kts 30°
2026-05-08 00:44 39.67185 -75.35210 32595 ft 472 kts 30°
2026-05-08 00:44 39.69688 -75.32441 32904 ft 473 kts 30°
2026-05-08 00:44 39.72190 -75.29671 33222 ft 473 kts 30°
2026-05-08 00:45 39.74695 -75.26894 33569 ft 472 kts 30°
2026-05-08 00:45 39.77168 -75.24151 33746 ft 476 kts 30°
2026-05-08 00:45 39.79706 -75.21241 33781 ft 488 kts 36°
2026-05-08 00:45 39.82051 -75.17961 33861 ft 500 kts 40°
2026-05-08 00:46 39.84302 -75.14536 33927 ft 507 kts 42°
2026-05-08 00:46 39.88894 -75.07435 34016 ft 518 kts 42°
2026-05-08 00:47 39.93657 -75.00257 34123 ft 528 kts 41°
2026-05-08 00:47 39.98413 -74.92815 34205 ft 544 kts 49°
2026-05-08 00:48 40.02655 -74.84491 34288 ft 556 kts 52°
2026-05-08 00:48 40.06857 -74.75915 34368 ft 564 kts 52°
2026-05-08 00:49 40.11161 -74.67359 34555 ft 567 kts 51°
2026-05-08 00:49 40.13343 -74.63064 34734 ft 566 kts 51°
2026-05-08 00:49 40.15518 -74.58780 34936 ft 565 kts 51°
2026-05-08 00:49 40.17690 -74.54485 35117 ft 564 kts 51°
2026-05-08 00:50 40.19987 -74.50351 35245 ft 559 kts 44°
2026-05-08 00:50 40.22623 -74.46663 35384 ft 550 kts 34°
2026-05-08 00:50 40.25546 -74.43500 35543 ft 544 kts 30°
2026-05-08 00:50 40.28516 -74.40435 35763 ft 543 kts 30°
2026-05-08 00:51 40.31490 -74.37369 35864 ft 544 kts 30°
2026-05-08 00:51 40.37399 -74.31160 36092 ft 545 kts 32°
2026-05-08 00:51 40.40345 -74.28006 36229 ft 545 kts 32°
2026-05-08 00:52 40.43277 -74.24851 36363 ft 545 kts 32°
2026-05-08 00:52 40.46174 -74.21728 36482 ft 546 kts 32°
2026-05-08 00:52 40.49111 -74.18562 36634 ft 547 kts 32°
2026-05-08 00:53 40.55018 -74.12200 36800 ft 548 kts 32°
2026-05-08 00:53 40.59971 -74.06860 36861 ft 550 kts 32°
2026-05-08 00:54 40.65843 -74.00520 36921 ft 549 kts 32°
2026-05-08 00:54 40.71747 -73.94128 36873 ft 549 kts 32°
2026-05-08 00:55 40.77634 -73.87736 36854 ft 550 kts 32°
2026-05-08 00:55 40.83534 -73.81294 36854 ft 551 kts 35°
2026-05-08 00:56 40.88668 -73.73603 36852 ft 566 kts 54°
2026-05-08 00:56 40.92636 -73.64766 36830 ft 567 kts 57°
2026-05-08 00:57 40.96590 -73.55740 36861 ft 567 kts 57°
2026-05-08 00:57 41.00589 -73.46826 36891 ft 567 kts 56°
2026-05-08 00:58 41.04651 -73.37860 36856 ft 567 kts 56°
2026-05-08 00:58 41.08680 -73.28936 36813 ft 567 kts 56°
2026-05-08 00:59 41.12714 -73.19949 36847 ft 567 kts 56°
2026-05-08 00:59 41.16748 -73.10951 36904 ft 567 kts 56°
2026-05-08 01:00 41.20898 -73.02044 36868 ft 567 kts 54°
2026-05-08 01:00 41.25104 -72.93188 36816 ft 567 kts 55°
2026-05-08 01:01 41.29266 -72.84360 36857 ft 566 kts 55°
2026-05-08 01:01 41.33427 -72.75454 36892 ft 568 kts 56°
2026-05-08 01:02 41.37587 -72.66506 36878 ft 569 kts 56°
2026-05-08 01:02 41.41738 -72.57550 36850 ft 564 kts 56°
2026-05-08 01:02 41.43773 -72.53149 36862 ft 551 kts 56°
2026-05-08 01:03 41.45765 -72.48833 36881 ft 545 kts 56°
2026-05-08 01:03 41.49721 -72.40259 36850 ft 541 kts 56°
2026-05-08 01:04 41.53648 -72.31729 36850 ft 538 kts 56°
2026-05-08 01:04 41.57530 -72.23269 36816 ft 536 kts 56°
2026-05-08 01:05 41.61430 -72.14745 36907 ft 540 kts 56°
2026-05-08 01:05 41.65362 -72.06126 36855 ft 542 kts 56°
2026-05-08 01:05 41.67304 -72.01855 36593 ft 534 kts 56°
2026-05-08 01:06 41.69228 -71.97617 36067 ft 533 kts 56°
2026-05-08 01:06 41.71153 -71.93376 35561 ft 532 kts 56°
2026-05-08 01:06 41.73067 -71.89153 35131 ft 529 kts 56°
2026-05-08 01:06 41.74971 -71.84946 34731 ft 526 kts 56°
2026-05-08 01:07 41.76860 -71.80766 34371 ft 523 kts 56°
2026-05-08 01:07 41.78735 -71.76610 33942 ft 521 kts 55°
2026-05-08 01:07 41.80605 -71.72462 33473 ft 517 kts 56°
2026-05-08 01:07 41.82445 -71.68371 33039 ft 507 kts 55°
2026-05-08 01:08 41.84250 -71.64352 32667 ft 497 kts 56°
2026-05-08 01:08 41.85901 -71.60348 32349 ft 486 kts 60°
2026-05-08 01:08 41.87374 -71.56307 32081 ft 478 kts 63°
2026-05-08 01:08 41.88783 -71.52238 31821 ft 481 kts 63°
2026-05-08 01:09 41.90159 -71.48232 31484 ft 478 kts 63°
2026-05-08 01:09 41.91560 -71.44196 31164 ft 475 kts 63°
2026-05-08 01:09 41.92968 -71.40197 30868 ft 471 kts 63°
2026-05-08 01:09 41.94375 -71.36241 30630 ft 469 kts 63°
2026-05-08 01:10 41.95794 -71.32273 30402 ft 474 kts 63°
2026-05-08 01:10 41.97236 -71.28250 30176 ft 479 kts 63°
2026-05-08 01:10 41.98678 -71.24216 29918 ft 478 kts 63°
2026-05-08 01:10 42.00105 -71.20215 29601 ft 472 kts 63°
2026-05-08 01:11 42.01517 -71.16247 29219 ft 469 kts 63°
2026-05-08 01:11 42.02920 -71.12297 28816 ft 466 kts 63°
2026-05-08 01:11 42.04310 -71.08377 28429 ft 462 kts 63°
2026-05-08 01:11 42.05691 -71.04480 28084 ft 459 kts 63°
2026-05-08 01:12 42.07062 -71.00606 27679 ft 457 kts 64°
2026-05-08 01:12 42.08491 -70.96802 27282 ft 453 kts 54°
2026-05-08 01:12 42.10517 -70.93715 26914 ft 439 kts 33°
2026-05-08 01:12 42.12999 -70.91527 26540 ft 422 kts 16°
2026-05-08 01:13 42.15698 -70.90146 26194 ft 411 kts
2026-05-08 01:13 42.18408 -70.88927 25814 ft 409 kts
2026-05-08 01:13 42.21099 -70.87736 25456 ft 407 kts
2026-05-08 01:13 42.23790 -70.86530 25079 ft 406 kts
2026-05-08 01:14 42.26467 -70.85309 24711 ft 405 kts
2026-05-08 01:14 42.29122 -70.84082 24326 ft 405 kts 10°
2026-05-08 01:14 42.31764 -70.82850 23933 ft 405 kts 10°
2026-05-08 01:14 42.34399 -70.81612 23835 ft 395 kts 10°
2026-05-08 01:15 42.36958 -70.80406 23782 ft 384 kts 10°
2026-05-08 01:15 42.39451 -70.79234 23737 ft 374 kts 10°
2026-05-08 01:15 42.41890 -70.78090 23547 ft 368 kts
2026-05-08 01:15 42.44308 -70.76951 23204 ft 369 kts 11°
2026-05-08 01:16 42.46711 -70.75690 22829 ft 370 kts 13°
2026-05-08 01:16 42.49095 -70.74362 22271 ft 375 kts 14°
2026-05-08 01:16 42.51572 -70.72981 21127 ft 398 kts 14°
2026-05-08 01:16 42.54190 -70.71527 20182 ft 414 kts 15°
2026-05-08 01:17 42.56919 -70.70014 19230 ft 429 kts 15°
2026-05-08 01:17 42.59688 -70.68473 18798 ft 428 kts 16°
2026-05-08 01:17 42.62434 -70.66944 18350 ft 426 kts 15°
2026-05-08 01:17 42.65166 -70.65434 17933 ft 422 kts 15°
2026-05-08 01:18 42.67881 -70.63936 17567 ft 417 kts 16°
2026-05-08 01:18 42.70484 -70.62402 17287 ft 410 kts 18°
2026-05-08 01:18 42.73097 -70.60761 16595 ft 415 kts 19°
2026-05-08 01:18 42.75707 -70.59085 16150 ft 413 kts 20°
2026-05-08 01:19 42.78285 -70.57426 15839 ft 405 kts 20°
2026-05-08 01:19 42.80798 -70.55816 15729 ft 392 kts 19°
2026-05-08 01:19 42.83250 -70.54286 15455 ft 383 kts 17°
2026-05-08 01:19 42.85694 -70.52861 15050 ft 380 kts 18°
2026-05-08 01:20 42.88097 -70.51354 14661 ft 379 kts 20°
2026-05-08 01:20 42.90456 -70.49804 14340 ft 374 kts 20°
2026-05-08 01:20 42.92788 -70.48275 14048 ft 369 kts 20°
2026-05-08 01:20 42.95099 -70.46782 13721 ft 365 kts 20°
2026-05-08 01:21 42.97358 -70.45342 13356 ft 361 kts 19°
2026-05-08 01:21 42.99625 -70.43904 12982 ft 357 kts 19°
2026-05-08 01:21 43.01869 -70.42480 12614 ft 354 kts 20°
2026-05-08 01:21 43.04037 -70.40872 12226 ft 354 kts 27°
2026-05-08 01:22 43.06099 -70.39052 11882 ft 351 kts 29°
2026-05-08 01:22 43.08120 -70.37214 11526 ft 347 kts 29°
2026-05-08 01:22 43.10139 -70.35400 11166 ft 344 kts 28°
2026-05-08 01:22 43.12137 -70.33640 10832 ft 340 kts 28°
2026-05-08 01:23 43.14122 -70.31910 10485 ft 337 kts 28°
2026-05-08 01:23 43.16092 -70.30199 10145 ft 333 kts 28°
2026-05-08 01:23 43.18029 -70.28506 9795 ft 325 kts 28°
2026-05-08 01:23 43.19882 -70.26874 9666 ft 307 kts 28°
2026-05-08 01:24 43.21627 -70.25335 9531 ft 291 kts 28°
2026-05-08 01:24 43.23297 -70.23864 9266 ft 281 kts 27°
2026-05-08 01:24 43.24939 -70.22423 8803 ft 279 kts 27°
2026-05-08 01:24 43.26556 -70.21026 8364 ft 277 kts 27°
2026-05-08 01:25 43.28206 -70.19607 7922 ft 276 kts 28°
2026-05-08 01:25 43.29807 -70.18229 7501 ft 274 kts 28°
2026-05-08 01:25 43.31414 -70.16844 7077 ft 272 kts 28°
2026-05-08 01:25 43.33020 -70.15491 6643 ft 270 kts 27°
2026-05-08 01:26 43.34640 -70.14209 6251 ft 268 kts 26°
2026-05-08 01:26 43.36253 -70.12949 5833 ft 265 kts 26°
2026-05-08 01:26 43.37851 -70.11699 5444 ft 263 kts 26°
2026-05-08 01:26 43.39437 -70.10455 5037 ft 260 kts 26°
2026-05-08 01:27 43.41001 -70.09224 4635 ft 258 kts 26°
2026-05-08 01:27 43.42547 -70.08004 4247 ft 255 kts 26°
2026-05-08 01:27 43.44073 -70.06798 3966 ft 248 kts 26°
2026-05-08 01:27 43.45525 -70.05646 3858 ft 234 kts 25°
2026-05-08 01:28 43.46900 -70.04555 3709 ft 223 kts 25°
2026-05-08 01:28 43.48232 -70.03500 3417 ft 219 kts 25°
2026-05-08 01:28 43.49544 -70.02463 3098 ft 217 kts 25°
2026-05-08 01:28 43.50834 -70.01440 3021 ft 216 kts 25°
2026-05-08 01:29 43.52199 -70.00364 3045 ft 240 kts 26°
2026-05-08 01:29 43.53679 -69.99192 2999 ft 248 kts 26°
2026-05-08 01:29 43.55176 -69.98002 3005 ft 248 kts 26°
2026-05-08 01:29 43.56752 -69.97145 2975 ft 240 kts
2026-05-08 01:30 43.58337 -69.97532 2990 ft 230 kts 332°
2026-05-08 01:30 43.59610 -69.98830 2988 ft 228 kts 310°
2026-05-08 01:30 43.60544 -70.00580 2992 ft 225 kts 303°
2026-05-08 01:30 43.61396 -70.02369 2978 ft 219 kts 303°
2026-05-08 01:31 43.62217 -70.04103 2971 ft 212 kts 303°
2026-05-08 01:31 43.62771 -70.05924 2974 ft 205 kts 278°
2026-05-08 01:31 43.62874 -70.07882 2992 ft 204 kts 279°
2026-05-08 01:31 43.63054 -70.09824 2901 ft 206 kts 278°
2026-05-08 01:32 43.63202 -70.11748 2664 ft 197 kts 277°
2026-05-08 01:32 43.63321 -70.13552 2404 ft 181 kts 277°
2026-05-08 01:32 43.63428 -70.15214 2160 ft 166 kts 278°
2026-05-08 01:32 43.63530 -70.16760 1952 ft 158 kts 278°
2026-05-08 01:33 43.63629 -70.18260 1758 ft 157 kts 278°
2026-05-08 01:33 43.63730 -70.19769 1521 ft 159 kts 279°
2026-05-08 01:33 43.63831 -70.21306 1297 ft 162 kts 278°
2026-05-08 01:33 43.63931 -70.22857 1066 ft 160 kts 277°
2026-05-08 01:34 43.64019 -70.24350 824 ft 155 kts 277°
2026-05-08 01:34 43.64119 -70.25817 614 ft 149 kts 279°
2026-05-08 01:34 43.64225 -70.27219 436 ft 144 kts 279°
2026-05-08 01:34 43.64327 -70.28577 269 ft 141 kts 279°
2026-05-08 01:35 43.64409 -70.29946 98 ft 142 kts 277°
2026-05-08 01:35 43.64494 -70.31203 69 ft 119 kts 276°
2026-05-08 01:35 43.64548 -70.32019 71 ft 33 kts 279°
2026-05-08 01:35 43.64597 -70.32081 82 ft 1 kts 357°
2026-05-08 01:36 43.64598 -70.32081 81 ft 0 kts 357°
2026-05-08 01:36 43.64606 -70.32082 81 ft 3 kts 358°
2026-05-08 01:37 43.64635 -70.32070 81 ft 5 kts 40°
2026-05-08 01:37 43.64650 -70.32026 71 ft 5 kts 71°
2026-05-08 01:37 43.64653 -70.31975 78 ft 6 kts 93°
2026-05-08 01:37 43.64651 -70.31919 70 ft 6 kts 94°
2026-05-08 01:38 43.64647 -70.31858 74 ft 7 kts 95°
2026-05-08 01:38 43.64643 -70.31790 75 ft 7 kts 94°
2026-05-08 01:38 43.64638 -70.31718 76 ft 8 kts 95°
2026-05-08 01:38 43.64633 -70.31640 70 ft 8 kts 95°
2026-05-08 01:39 43.64627 -70.31557 72 ft 9 kts 95°
2026-05-08 01:39 43.64622 -70.31470 71 ft 9 kts 95°
2026-05-08 01:39 43.64616 -70.31383 64 ft 9 kts 96°
2026-05-08 01:39 43.64609 -70.31298 69 ft 9 kts 95°
2026-05-08 01:40 43.64605 -70.31215 68 ft 9 kts 93°
2026-05-08 01:40 43.64613 -70.31164 68 ft 8 kts 56°
2026-05-08 01:40 43.64661 -70.31122 66 ft 8 kts 10°
2026-05-08 01:40 43.64676 -70.31119 60 ft 2 kts
2026-05-08 01:41 43.64677 -70.31119 65 ft 0 kts
2026-05-08 01:54 43.64676 -70.31119 67 ft 0 kts